Regional Weather Roundup
Issued by NWS Cleveland, OH

Home | Current Version | Previous Version | Text Only | Print | Product List | Glossary Off
Versions: 1 2 3 4 5 6 7 8 9 10 11 12 13 14 15 16 17 18 19 20 21 22 23 24 25 26 27 28 29 30 31 32 33 34 35 36 37 38 39 40 41 42 43 44 45 46 47 48 49 50

000
ASUS41 KCLE 240002
RWRCLE
OHIO REGIONAL WEATHER ROUNDUP
NATIONAL WEATHER SERVICE CLEVELAND, OH
800 PM EDT TUE MAY 23 2017

NOTE: "FAIR" INDICATES FEW OR NO CLOUDS BELOW 12,000 FEET WITH NO
SIGNIFICANT WEATHER AND/OR OBSTRUCTIONS TO VISIBILITY.

OHZ001>008-015>018-024>027-034-035-043-044-240100-
   NORTHWEST OHIO

CITY           SKY/WX    TMP DP  RH WIND       PRES   REMARKS
DEFIANCE       MOCLDY    68  47  46 NE9       29.69S
FINDLAY        MOCLDY    71  48  43 NE15      29.68S
TOLEDO EXPRESS PTCLDY    66  48  52 E8        29.71R
TOLEDO EXEC    PTCLDY    66  50  56 E9        29.72R
LIMA           MOCLDY    68  51  54 NE5       29.68F
$$

OHZ009>014-019>023-028>033-038-089-240100-
   NORTHEAST OHIO

CITY           SKY/WX    TMP DP  RH WIND       PRES   REMARKS
CLE-HOPKINS    CLOUDY    65  52  62 N8        29.74R
CLE-LAKEFRONT  CLOUDY    61  55  81 NE10      29.71R
CUY CO. ARPT   MOCLDY    68  54  60 E9        29.73R
LORAIN-ELYRIA  CLOUDY    63  46  54 NE8       29.72S
ASHTABULA      CLOUDY    65  47  52 NE6       29.75S
AKRON-CANTON   CLOUDY    70  47  43 SE9       29.72S
WOOSTER        CLOUDY    68  52  56 SE7       29.72R
MANSFIELD      CLOUDY    69  50  50 E5        29.71F
YOUNGSTOWN     CLOUDY    67  46  47 SE7       29.74S
$$

OHZ042-051>053-060>062-070>072-077>081-240100-
  SOUTHWEST OHIO

CITY           SKY/WX    TMP DP  RH WIND       PRES   REMARKS
CINC-COVINGTON CLOUDY    72  54  53 SE3       29.66S
CINC-LUNKEN    PTCLDY    70  59  68 SE3       29.66S
HAMILTON       CLOUDY    72  52  49 CALM      29.66F
DAYTON         CLOUDY    69  46  43 E6        29.68S
WRIGHT-PAT AFB CLOUDY    71  48  44 E7        29.67S
DAYTON GENERAL CLOUDY    69  47  45 SE5       29.66F
WILMINGTON     PTCLDY    68  53  58 SE6       29.67F
$$

OHZ036-037-039>041-045>050-054>059-063>069-073>076-082>088-240100-
  CENTRAL AND SOUTHEAST OHIO

CITY           SKY/WX    TMP DP  RH WIND       PRES   REMARKS
COLUMBUS       CLOUDY    72  47  40 SE7       29.68S
OSU AIRPORT    CLOUDY    71  46  40 SE6       29.68F
BOLTON FIELD   NOT AVBL
RICKENBACK AFB NOT AVBL
NEWARK         CLOUDY    71  52  50 SE6       29.69S
MARION         CLOUDY    70  45  40 SE6       29.69F
LANCASTER      CLOUDY    70  53  54 S6        29.69F
ZANESVILLE     CLOUDY    69  57  65 SE6       29.70S
NEW PHILLY     NOT AVBL
$$




USA.gov is the U.S. government's official web portal to all federal, state and local government web resources and services.